Regional Weather Roundup
Issued by NWS Charleston, WV

Home | Current Version | Previous Version | Text Only | Print | Product List | Glossary On
Versions: 1 2 3 4 5 6 7 8 9 10 11 12 13 14 15 16 17 18 19 20 21 22 23 24 25 26 27 28 29 30 31 32 33 34 35 36 37 38 39 40 41 42 43 44 45 46 47 48 49 50
000
ASUS41 KRLX 011010
RWRRLX
West Virginia Regional Weather Roundup
National Weather Service Charleston WV
500 AM EST SUN FEB 01 2015

Note: "fair" indicates few or no clouds below 12,000 feet with no
significant weather and/or obstructions to visibility.

WVZ003-011100-
Northern Panhandle of West Virginia

CITY           SKY/WX    TMP DP  RH WIND       PRES   REMARKS
WHEELING       LGT SNOW  27  24  89 S6        30.17S FOG
$$

WVZ009-011100-
Northwest West Virginia

CITY           SKY/WX    TMP DP  RH WIND       PRES   REMARKS
PARKERSBURG    MIX PCPN  31  29  92 CALM      30.21F
$$

WVZ006-011100-
Western West Virginia

CITY           SKY/WX    TMP DP  RH WIND       PRES   REMARKS
HUNTINGTON     CLOUDY    31  23  72 CALM      30.19R
$$

WVZ015-011100-
West Central West Virginia

CITY           SKY/WX    TMP DP  RH WIND       PRES   REMARKS
CHARLESTON     CLOUDY    30  23  75 CALM      30.19S
$$

WVZ022-031-011100-
North Central West Virginia

CITY           SKY/WX    TMP DP  RH WIND       PRES   REMARKS
CLARKSBURG     LGT SNOW  29  25  85 S5        30.20S FOG
MORGANTOWN     LGT SNOW  28  21  75 SW6       30.20S
$$

WVZ025-035-042-045-011100-
Southern West Virginia

CITY           SKY/WX    TMP DP  RH WIND       PRES   REMARKS
BECKLEY        CLOUDY    31  15  52 S3        30.15F
LOGAN          CLOUDY    34  14  44 CALM      30.15F
BLUEFIELD      CLOUDY    35   7  31 CALM      30.15S
LEWISBURG      CLOUDY    31  16  54 CALM      30.17F
$$

WVZ047-011100-
Northern Mountains of West Virginia

CITY           SKY/WX    TMP DP  RH WIND       PRES   REMARKS
ELKINS         CLOUDY    25  20  81 CALM      30.18S
$$

WVZ052-011100-
Eastern Panhandle of West Virginia

CITY           SKY/WX    TMP DP  RH WIND       PRES   REMARKS
MARTINSBURG    CLOUDY    28  15  58 CALM      30.23S
PETERSBURG     CLOUDY    28  15  57 E3        30.21S
$$



USA.gov is the U.S. government's official web portal to all federal, state and local government web resources and services.